Dauntless Aviation
Greetings, Guest! To participate, [sign up for a free account] or [log in]
Airports Europe Czech Republic
LKPO
PRV

Prerov

Prerov, CZECH REPUBLIC

Airport Info
Edit

Location

Latitude / Longitude: 49°25'32"N / 17°24'16"E
  49°25.548'N / 17°24.282'E
  49.4258 / 17.4047

Nearby radio navigation aids

CK PREROV NDB. 63.6° 2.8nm from CK to field.

Runway Information

Runway 06 /24

Dimensions: 8202 x 196 ft.
Surface: ASP
 
Runway 06
Runway 24
Latitude: 49.421419 49.430439
Longitude: 17.389275 17.420478
Elevation: 663 ft. 663 ft.
Runway true heading: 64.6 244.6
 

Instrument Procedures

  Aerodrome Chart

IAPs (Instrument Approach Procedures)

  ILS/DME Rwy 06
  NDB/DME (GPS) or PAR Rwy 06
  NDB (GPS) or PAR Rwy 06
  POLOM 3A

Departure Procedures

  Instrument Departure Chart HLV 1A - 2Z
  Instrument Departure Chart LUTIM 2A - 2Z
  Instrument Departure Chart MORKO 2Z
  Instrument Departure Chart POLOM 3A
Satellite photo at:
Airport distance calculator
From:
Weather Reports

METAR

LKMT
31.3nm NE
LKMT 011800Z 02004KT 8000 OVC033 15/14 Q1026 NOSIG
LKTB
33.3nm SW
LKTB 011800Z 00000KT 6000 -RA FEW014 SCT020 OVC040 14/14 Q1026 NOSIG

TAF

LKMT
31.3nm NE
TAF LKMT 011700Z 0118/0224 VRB02KT 5000 BR SCT013 OVC035 TEMPO 0118/0207 1200 RA BKN004 PROB30 TEMPO 0120/0207 0500 FG BKN001 BECMG 0207/0209 02010KT 8000 SCT030 TEMPO 0209/0216 SHRA SCT020CB BECMG 0218/0221 4000 BR NSC TEMPO 0222/0224 1200 BR BKN003
LKTB
33.3nm SW
TAF LKTB 011700Z 0118/0224 VRB02KT 5000 BR BKN016 TEMPO 0118/0206 1200 RA BKN005 PROB30 TEMPO 0203/0206 0800 FG BKN002 BECMG 0209/0211 9999 SCT030 PROB30 TEMPO 0211/0216 SHRA SCT025TCU BECMG 0218/0221 4000 BR NSC TEMPO 0222/0224 1200 BR BKN003
Safelog

 

Dauntless Aviation

© 2007-2014 Dauntless Aviation, all rights reserved
Information provided via PilotNav comes from a variety of official and unofficial data sources. As errors are possible, do not use PilotNav for primary flight planning purposes. Verify any information that you receive via PilotNav with current and canonical charts and other official documents. The material in this database is subject to database copyrights held by Dauntless Aviation and may not be copied without the express permission of Dauntless Aviation - licenses for use of part of all of this data are available for purchase; enquire via the Dauntless Aviation helpdesk. A number of mechanisms and markers exist in the database to protect against and identify infringement / copyright. Automated queries against this website are stictly prohibited, and all activity is logged and analyzed.